GW6838 Weather Reports


time (UTC)temp
C
wind
direction
speed
KPH
gust
KPH
rain 1hr
cm
rain 24hr
cm
rain mn
cm
humidity
%
barometer
mb
20260504070304 10 220 4.8 16.1 0.00 0.08 0.00 56 1008.4
20260504050303 8 102 3.2 4.8 0.00 0.08 0.00 87 1009.1
20260504045803 8 93 3.2 4.8 0.00 0.08 0.00 87 1009.1
20260504045304 8 92 3.2 3.2 0.00 0.08 0.00 87 1009.0
20260504044303 8 79 3.2 3.2 0.00 0.08 0.00 86 1009.2
20260504043803 8 82 3.2 4.8 0.00 0.08 0.00 86 1009.2
20260504043303 8 70 3.2 4.8 0.00 0.08 0.00 85 1009.3
20260504042803 8 74 3.2 4.8 0.00 0.08 0.00 85 1009.1
20260504042304 8 80 3.2 4.8 0.00 0.08 0.00 84 1009.2
20260504041803 8 105 3.2 4.8 0.00 0.08 0.00 84 1009.1
20260504041303 8 87 4.8 4.8 0.00 0.08 0.00 84 1009.2
20260504040803 8 80 3.2 4.8 0.00 0.08 0.00 83 1009.3
20260504035804 8 67 3.2 4.8 0.00 0.08 0.08 83 1009.2
20260504035305 8 75 3.2 4.8 0.00 0.08 0.08 83 1009.4
20260504034303 8 150 1.6 3.2 0.00 0.08 0.08 83 1009.4
20260504033303 8 84 3.2 11.3 0.00 0.08 0.08 84 1009.3
20260504032803 8 110 4.8 11.3 0.00 0.08 0.08 84 1009.5
20260504032304 8 144 4.8 8.0 0.00 0.08 0.08 84 1009.6
20260504031303 8 71 3.2 4.8 0.00 0.08 0.08 83 1009.8
20260504030303 8 87 0.0 4.8 0.00 0.08 0.08 83 1009.6
20260504025803 8 145 1.6 4.8 0.00 0.08 0.08 82 1009.4
20260504025304 8 113 3.2 8.0 0.00 0.08 0.08 81 1009.6
20260504024803 8 120 4.8 8.0 0.00 0.08 0.08 81 1009.5
20260504024304 9 128 3.2 4.8 0.03 0.08 0.08 80 1009.6
20260504023303 9 125 3.2 4.8 0.03 0.08 0.08 79 1009.8
20260504022804 9 118 3.2 4.8 0.05 0.08 0.08 79 1010.1
20260504022304 9 101 1.6 4.8 0.05 0.08 0.08 78 1010.3
20260504021804 9 53 3.2 4.8 0.05 0.08 0.08 77 1010.5
20260504021304 10 20 1.6 8.0 0.05 0.08 0.08 76 1010.4
20260504020803 10 235 3.2 11.3 0.05 0.08 0.08 75 1010.2
20260504020302 10 257 6.4 11.3 0.05 0.08 0.08 75 1010.3
20260504015803 10 243 6.4 16.1 0.05 0.08 0.08 75 1010.3
20260504015304 10 266 6.4 16.1 0.05 0.08 0.08 74 1010.5
20260504014803 10 260 8.0 24.1 0.03 0.05 0.05 74 1010.5
20260504014303 10 285 11.3 27.4 0.03 0.05 0.05 72 1010.5
20260504013804 10 277 14.5 40.2 0.05 0.05 0.05 70 1010.7
20260504012803 11 242 14.5 32.2 0.03 0.03 0.03 65 1010.7
20260504012305 11 278 9.7 24.1 0.03 0.03 0.03 64 1010.7
20260504011803 11 273 6.4 38.6 0.03 0.03 0.03 63 1010.4
20260504011305 11 259 19.3 38.6 0.03 0.03 0.03 61 1010.2
20260504010805 11 274 16.1 32.2 0.03 0.03 0.03 61 1010.2
20260504010304 11 289 11.3 46.7 0.03 0.03 0.03 60 1010.0
20260504005803 11 305 20.9 46.7 0.03 0.03 0.03 57 1009.9
20260504005304 11 287 11.3 35.4 0.03 0.03 0.03 57 1010.0
20260504004803 11 257 4.8 27.4 0.03 0.03 0.03 64 1009.9
20260504004302 11 278 19.3 41.8 0.03 0.03 0.03 60 1009.8
20260504003803 11 260 6.4 41.8 0.00 0.00 0.00 57 1009.9
20260504003304 12 266 30.6 41.8 0.00 0.00 0.00 53 1009.5
20260504002803 12 257 16.1 37.0 0.00 0.00 0.00 50 1009.7
20260504002304 12 252 6.4 29.0 0.00 0.00 0.00 46 1009.4
20260504001803 12 247 14.5 29.0 0.00 0.00 0.00 44 1009.3
20260504001303 12 39 3.2 11.3 0.00 0.00 0.00 49 1009.2
20260504000803 12 253 8.0 22.5 0.00 0.00 0.00 46 1009.2
20260504000304 12 176 1.6 4.8 0.00 0.00 0.00 45 1009.1
20260503235804 12 201 1.6 8.0 0.00 0.00 0.00 44 1009.1
20260503235304 12 189 3.2 4.8 0.00 0.00 0.00 45 1009.2
20260503234303 12 201 1.6 8.0 0.00 0.00 0.00 45 1009.0
20260503233803 12 268 4.8 14.5 0.00 0.00 0.00 44 1009.0
20260503232803 12 291 3.2 20.9 0.00 0.00 0.00 45 1009.3
20260503232305 12 241 12.9 24.1 0.00 0.00 0.00 45 1009.7
20260503231303 12 260 17.7 51.5 0.00 0.00 0.00 42 1009.8
20260503230804 12 278 22.5 40.2 0.00 0.00 0.00 41 1009.9
20260503230303 13 301 14.5 37.0 0.00 0.00 0.00 40 1009.9
20260503225803 13 267 14.5 20.9 0.00 0.00 0.00 39 1009.6
20260503225304 13 312 6.4 20.9 0.00 0.00 0.00 38 1009.6
20260503224803 13 264 8.0 25.7 0.00 0.00 0.00 38 1009.8
20260503223803 13 298 6.4 22.5 0.00 0.00 0.00 37 1009.6
20260503223304 13 260 8.0 22.5 0.00 0.00 0.00 36 1009.3
20260503222804 13 283 12.9 16.1 0.00 0.00 0.00 36 1009.3
20260503222304 13 277 4.8 19.3 0.00 0.00 0.00 37 1009.3
20260503221803 13 252 6.4 20.9 0.00 0.00 0.00 38 1009.3
20260503220803 13 226 9.7 19.3 0.00 0.00 0.00 37 1009.4
20260503220304 13 276 8.0 19.3 0.00 0.00 0.00 37 1009.5
20260503215802 13 256 11.3 19.3 0.00 0.00 0.00 38 1009.5
20260503214803 13 236 11.3 22.5 0.00 0.00 0.00 37 1009.5
20260503214303 13 249 9.7 19.3 0.00 0.00 0.00 38 1009.5
20260503213803 13 279 8.0 19.3 0.00 0.00 0.00 39 1009.6
20260503213303 13 268 8.0 22.5 0.00 0.00 0.00 39 1009.5
20260503212803 13 265 9.7 19.3 0.00 0.00 0.00 38 1009.4
20260503212305 13 225 8.0 22.5 0.00 0.00 0.00 40 1009.4
20260503211304 12 250 11.3 22.5 0.00 0.00 0.00 39 1009.4
20260503210803 12 249 11.3 35.4 0.00 0.00 0.00 40 1009.6
20260503210303 12 225 16.1 29.0 0.00 0.00 0.00 39 1009.8
20260503205803 13 249 19.3 25.7 0.00 0.00 0.00 39 1009.6
20260503205304 12 270 12.9 25.7 0.00 0.00 0.00 38 1009.7
20260503204803 12 272 11.3 25.7 0.00 0.00 0.00 37 1009.8
20260503204303 12 233 14.5 27.4 0.00 0.00 0.00 38 1009.7
20260503203804 12 253 16.1 27.4 0.00 0.00 0.00 37 1010.0
20260503203303 13 263 8.0 25.7 0.00 0.00 0.00 36 1009.9
20260503202803 14 316 4.8 24.1 0.00 0.00 0.00 35 1010.0
20260503202304 12 281 14.5 37.0 0.00 0.00 0.00 36 1010.0
20260503201803 13 267 12.9 32.2 0.00 0.00 0.00 35 1010.2
20260503201303 13 294 14.5 32.2 0.00 0.00 0.00 34 1010.1
20260503200805 13 24 4.8 38.6 0.00 0.00 0.00 35 1010.1
20260503195803 13 298 14.5 29.0 0.00 0.00 0.00 34 1010.3
20260503195304 12 243 11.3 35.4 0.00 0.00 0.00 33 1010.5
20260503194303 12 304 9.7 35.4 0.00 0.00 0.00 32 1010.3
20260503193804 12 306 17.7 35.4 0.00 0.00 0.00 34 1010.5
20260503193304 12 308 11.3 32.2 0.00 0.00 0.00 36 1010.5
20260503192804 12 282 8.0 24.1 0.00 0.00 0.00 36 1010.4
20260503192305 12 274 9.7 32.2 0.00 0.00 0.00 34 1010.5
20260503191803 13 246 16.1 35.4 0.00 0.00 0.00 35 1010.6
20260503191303 12 271 20.9 38.6 0.00 0.00 0.00 35 1010.6
20260503190804 12 245 20.9 38.6 0.00 0.00 0.00 35 1010.6
20260503190306 12 267 12.9 35.4 0.00 0.00 0.00 35 1010.7
20260503185805 12 251 16.1 27.4 0.00 0.00 0.00 35 1010.6
20260503185304 12 280 19.3 35.4 0.00 0.00 0.00 35 1010.7
20260503184804 13 279 17.7 35.4 0.00 0.00 0.00 33 1010.7
20260503184304 13 273 14.5 35.4 0.00 0.00 0.00 33 1010.7
20260503183803 13 257 16.1 35.4 0.00 0.00 0.00 32 1010.8
20260503183303 12 287 9.7 37.0 0.00 0.00 0.00 31 1010.8
20260503182803 13 258 19.3 37.0 0.00 0.00 0.00 31 1011.0
20260503182305 13 240 4.8 24.1 0.00 0.00 0.00 32 1011.1
20260503181803 12 257 19.3 35.4 0.00 0.00 0.00 32 1011.1
20260503181304 12 252 24.1 37.0 0.00 0.00 0.00 32 1011.0
20260503180303 12 285 14.5 32.2 0.00 0.00 0.00 32 1011.2
20260503175803 13 216 9.7 32.2 0.00 0.00 0.00 34 1011.2
20260503175305 12 262 4.8 33.8 0.00 0.00 0.00 32 1011.4
20260503173803 12 256 12.9 32.2 0.00 0.00 0.00 31 1011.5
20260503172803 12 277 6.4 35.4 0.00 0.00 0.00 30 1011.7
20260503172305 11 319 9.7 35.4 0.00 0.00 0.00 33 1011.6
20260503171804 12 257 11.3 29.0 0.00 0.00 0.00 32 1011.8
20260503170804 12 300 4.8 38.6 0.00 0.00 0.00 34 1011.6
20260503170303 11 248 27.4 38.6 0.00 0.00 0.00 33 1012.0
20260503150804 9 274 11.3 27.4 0.00 0.00 0.00 33 1013.4
20260503150303 9 324 6.4 27.4 0.00 0.00 0.00 34 1013.3
20260503130805 6 257 8.0 20.9 0.00 0.00 0.00 59 1014.0
20260503130303 6 273 14.5 20.9 0.00 0.00 0.00 60 1014.0
20260503110804 3 259 8.0 16.1 0.00 0.00 0.00 78 1013.5
20260503110303 3 247 4.8 11.3 0.00 0.00 0.00 79 1013.5
20260503090304 3 260 3.2 8.0 0.00 0.00 0.00 73 1013.2
20260503080303 4 247 3.2 9.7 0.00 0.00 0.00 76 1013.2
20260503072803 4 251 3.2 8.0 0.00 0.00 0.00 78 1013.2
20260503072305 4 261 3.2 8.0 0.00 0.00 0.00 78 1013.3
20260503071804 4 141 1.6 4.8 0.00 0.00 0.00 78 1013.2